Flag for U.S.A. Weather past 2 weeks in New Orleans, Louisiana, U.S.A.

Now
91 °F

Sunny.


Feels Like: 101 °F
Forecast: 81 / 94 °F
Wind: 10 mph from Northwest

Location: Lakefront Airport

Current Time: Jul 31, 2015 at 3:26:28 PM

Latest Report: Jul 31, 2015 at 2:53 PM


Visibility: 10 mi

Pressure: 29.90 "Hg

Humidity: 57%

Dew point: 74 °F

Location of New OrleansLocation

Historic Weather in New Orleans — Graph

°F

New Orleans temperature yesterday

Maximum temperature yesterday: 91 °F (at 3:53 PM)
Minimum temperature yesterday: 79 °F (at 4:53 PM)
Average temperature yesterday: 84 °F

Past Weeks' High & Low Weather Summary

 TemperatureHumidityPressure
High98 °F (Jul 27, 2:53 PM)93% (Jul 29, 6:53 PM)30.06 "Hg (Jul 29, 6:53 PM)
Low77 °F (Jul 29, 8:53 PM)34% (Jul 27, 2:53 PM)29.84 "Hg (Jul 25, 4:53 PM)
Average89 °F64%29.95 "Hg
* Reported Jul 16 1:53 PM — Jul 31 1:53 PM, New Orleans, Weather by CustomWeather, © 2015

Note: Actual official high and low records may vary slightly from our data, if they occured in-between our weather recording intervals... More about our weather records

Advertising

New Orleans weather history for previous 24 hours

 ConditionsComfort  
Time TempWeatherWind HumidityBarometerVisibility
1:53 PM
Fri, Jul 31
89 °FSunny.8 mph61%29.91 "Hg10 mi
12:53 PM88 °FPassing clouds.7 mph61%29.93 "Hg10 mi
11:53 AM87 °FPassing clouds.8 mph61%29.94 "Hg10 mi
10:53 AM86 °FPassing clouds.6 mph61%29.94 "Hg10 mi
9:53 AM83 °FPassing clouds.12 mph65%29.93 "Hg10 mi
8:53 AM82 °FPartly sunny.13 mph70%29.95 "Hg10 mi
7:53 AM81 °FScattered clouds.13 mph72%29.94 "Hg10 mi
6:53 AM82 °FClear.14 mph70%29.93 "Hg10 mi
5:53 AM81 °FClear.16 mph77%29.93 "Hg10 mi
4:53 AM81 °FClear.12 mph79%29.91 "Hg10 mi
3:53 AM81 °FPassing clouds.14 mph79%29.91 "Hg10 mi
2:53 AM81 °FPassing clouds.9 mph79%29.92 "Hg10 mi
1:53 AM82 °FClear.9 mph74%29.92 "Hg10 mi
12:53 AM82 °FClear.10 mph79%29.94 "Hg10 mi
11:53 PM
Thu, Jul 30
81 °FClear.10 mph77%29.94 "Hg10 mi
10:53 PM81 °FClear.9 mph77%29.96 "Hg10 mi
9:53 PM80 °FPassing clouds.8 mph79%29.98 "Hg10 mi
8:53 PM82 °FSunny.15 mph79%29.96 "Hg10 mi
7:53 PM81 °FPassing clouds.15 mph82%29.94 "Hg10 mi
6:53 PM81 °FLight rain. Partly sunny.14 mph82%29.91 "Hg6 mi
5:53 PM83 °FScattered clouds.20 mph72%29.95 "Hg10 mi
4:53 PM79 °FLight rain. Broken clouds.20 mph82%29.95 "Hg7 mi
3:53 PM91 °FPassing clouds.6 mph60%29.91 "Hg10 mi
Weather by CustomWeather, © 2015

See weather overviewHow to use our weather pages